Weather History for KBOI - May, 2014

Change the Weather History Date:

Thursday, May 29, 2014

  Actual Average Record
Temperature  
Mean Temperature 56 °F 63 °F  
Max Temperature 71 °F 76 °F 100 °F (1897)
Min Temperature 40 °F 50 °F 32 °F (1976)
Degree Days  
Heating Degree Days 9 4  
Month to date heating degree days 146 217  
Since 1 July heating degree days 5505 5441  
Cooling Degree Days 0 2  
Month to date cooling degree days 24 37  
Year to date cooling degree days 24 40  
Growing Degree Days 5 (Base 50)    
Moisture  
Dew Point 26 °F    
Average Humidity 41    
Maximum Humidity 67    
Minimum Humidity 14    
Precipitation  
Precipitation 0.00 in 0.05 in 1.77 in (1990)
Month to date precipitation 0.60 1.31  
Year to date precipitation 8.10 6.16  
Snow  
Snow 0.00 in 0.00 in 0.00 in (2007)
Month to date snowfall 0.0 0.0  
Since 1 July snowfall 14.4 19.2  
Snow Depth 0.00 in    
Sea Level Pressure  
Sea Level Pressure 30.11 in    
Wind  
Wind Speed 6 mph (WNW)    
Max Wind Speed 15 mph    
Max Gust Speed 22 mph    
Visibility 10 miles    
Events      
T = Trace of Precipitation, MM = Missing Value Source: NWS Daily Summary

Daily Weather History Graph

Daily Weather History Graph

Search for Another Location

Airport or City:

Trip Planner

Search our weather history database for the weather conditions in past years. The results will help you decide how hot, cold, wet, or windy it might be!

Date:

Astronomy

May. 29, 2014 Rise Set
Actual Time 6:08 AM MDT 9:17 PM MDT
Civil Twilight 5:33 AM MDT 9:51 PM MDT
Nautical Twilight 4:49 AM MDT 10:36 PM MDT
Astronomical Twilight 3:55 AM MDT 11:30 PM MDT
Moon 7:07 AM MDT 10:09 PM MDT
Length of Visible Light 16h 18m
Length of Day
15h 08m
New Moon, 1% of the Moon is Illuminated
May 29
New Moon
Jun 5
First Quarter
Jun 12
Full
Jun 19
Last Quarter
Jun 27
New

Hourly Weather History & Observations

Time (MDT) Temp. Windchill Dew Point Humidity Pressure Visibility Wind Dir Wind Speed Gust Speed Precip Events Conditions
12:53 AM 52.0 °F - 28.0 °F 40% 30.08 in 10.0 mi WNW 8.1 mph - N/A   Clear
1:53 AM 48.2 °F - 28.4 °F 46% 30.13 in 10.0 mi West 6.9 mph - N/A   Clear
2:53 AM 46.0 °F - 30.0 °F 54% 30.11 in 10.0 mi Calm Calm - N/A   Clear
3:53 AM 43.0 °F - 30.9 °F 62% 30.13 in 10.0 mi Calm Calm - N/A   Clear
4:53 AM 43.0 °F 40.3 °F 32.0 °F 65% 30.14 in 10.0 mi WNW 4.6 mph - N/A   Clear
5:53 AM 43.0 °F - 32.0 °F 65% 30.16 in 10.0 mi Calm Calm - N/A   Clear
6:53 AM 43.0 °F - 32.0 °F 65% 30.17 in 10.0 mi Calm Calm - N/A   Clear
7:53 AM 46.0 °F - 32.0 °F 58% 30.17 in 10.0 mi Calm Calm - N/A   Clear
8:53 AM 48.9 °F - 30.9 °F 50% 30.17 in 10.0 mi West 4.6 mph - N/A   Clear
9:53 AM 54.0 °F - 30.9 °F 41% 30.18 in 10.0 mi NW 9.2 mph - N/A   Clear
10:53 AM 57.9 °F - 30.9 °F 36% 30.17 in 10.0 mi WNW 11.5 mph - N/A   Clear
11:53 AM 59.0 °F - 28.9 °F 32% 30.16 in 10.0 mi WNW 11.5 mph 19.6 mph N/A   Clear
12:53 PM 63.0 °F - 27.0 °F 26% 30.14 in 10.0 mi NW 4.6 mph - N/A   Clear
1:53 PM 63.0 °F - 25.0 °F 24% 30.14 in 10.0 mi Variable 5.8 mph - N/A   Clear
2:53 PM 66.9 °F - 23.0 °F 19% 30.11 in 10.0 mi WNW 10.4 mph 16.1 mph N/A   Clear
3:53 PM 69.8 °F - 19.4 °F 15% 30.12 in 10.0 mi West 10.4 mph 18.4 mph N/A   Clear
4:53 PM 70.0 °F - 19.9 °F 15% 30.07 in 10.0 mi NW 11.5 mph 18.4 mph N/A   Clear
5:53 PM 69.1 °F - 18.0 °F 14% 30.06 in 10.0 mi West 10.4 mph - N/A   Clear
6:53 PM 70.0 °F - 18.0 °F 14% 30.04 in 10.0 mi WNW 11.5 mph - N/A   Clear
7:53 PM 69.1 °F - 18.0 °F 14% 30.04 in 10.0 mi WNW 10.4 mph - N/A   Clear
8:53 PM 66.0 °F - 19.9 °F 17% 30.04 in 10.0 mi WNW 9.2 mph - N/A   Clear
9:53 PM 60.1 °F - 19.9 °F 21% 30.04 in 10.0 mi NW 5.8 mph - N/A   Clear
10:53 PM 57.0 °F - 27.0 °F 32% 30.04 in 10.0 mi NNE 4.6 mph - N/A   Clear
11:53 PM 55.9 °F - 27.0 °F 33% 30.04 in 10.0 mi Calm Calm - N/A   Clear